Regional Weather Roundup
Issued by NWS Cleveland, OH

Home | Current Version | Previous Version | Text Only | Print | Product List | Glossary Off
Versions: 1 2 3 4 5 6 7 8 9 10 11 12 13 14 15 16 17 18 19 20 21 22 23 24 25 26 27 28 29 30 31 32 33 34 35 36 37 38 39 40 41 42 43 44 45 46 47 48 49 50

751
ASUS41 KCLE 250200
RWRCLE
OHIO REGIONAL WEATHER ROUNDUP
NATIONAL WEATHER SERVICE WILMINGTON, OH
1000 PM EDT MON JUL 24 2017

NOTE: "FAIR" INDICATES FEW OR NO CLOUDS BELOW 12,000 FEET WITH NO
SIGNIFICANT WEATHER AND/OR OBSTRUCTIONS TO VISIBILITY.

OHZ001>008-015>018-024>027-034-035-043-044-250300-
   NORTHWEST OHIO

CITY           SKY/WX    TMP DP  RH WIND       PRES   REMARKS
DEFIANCE       FAIR     N/A N/A N/A CALM      30.08R
FINDLAY        FAIR      68  56  65 N3        30.06R
TOLEDO EXPRESS FAIR      65  56  72 N7        30.07R
TOLEDO EXEC    FAIR      68  55  63 N6        30.08R
LIMA           FAIR      61  60  97 CALM      30.08R
$$

OHZ009>014-019>023-028>033-038-089-250300-
   NORTHEAST OHIO

CITY           SKY/WX    TMP DP  RH WIND       PRES   REMARKS
CLE-HOPKINS    FAIR      68  54  60 N17G26    30.07R
CLE-LAKEFRONT  MOCLDY    68  55  63 NW21G30   30.04R
CUY CO. ARPT   MOCLDY    66  57  72 NW14G23   30.04R
LORAIN-ELYRIA  FAIR      65  53  65 N8        30.07R
ASHTABULA      CLOUDY    65  56  72 NW13      30.02R
AKRON-CANTON   FAIR      65  53  65 N12G21    30.04R
WOOSTER        NOT AVBL
MANSFIELD      FAIR      61  59  93 NW5       30.07R
YOUNGSTOWN     CLOUDY    64  55  72 NW9       30.02R
$$

OHZ042-051>053-060>062-070>072-077>081-250300-
  SOUTHWEST OHIO

CITY           SKY/WX    TMP DP  RH WIND       PRES   REMARKS
CINC-COVINGTON FAIR      74  65  73 N8        30.04R
CINC-LUNKEN    FAIR      74  65  73 N7        30.03R
HAMILTON       FAIR      71  64  78 N5        30.05R
DAYTON         NOT AVBL
WRIGHT-PAT AFB FAIR      68  60  74 N7        30.06R
DAYTON GENERAL FAIR      69  59  70 N9        30.05R
WILMINGTON     FAIR      66  62  87 NE7       30.05R
$$

OHZ036-037-039>041-045>050-054>059-063>069-073>076-082>088-250300-
  CENTRAL AND SOUTHEAST OHIO

CITY           SKY/WX    TMP DP  RH WIND       PRES   REMARKS
COLUMBUS       FAIR      67  60  78 N8        30.04R
OSU AIRPORT    FAIR      66  60  81 N8        30.06R
BOLTON FIELD   NOT AVBL
RICKENBACK AFB NOT AVBL
NEWARK         FAIR      67  59  75 N3        30.05R
MARION         FAIR      63  58  83 N3        30.07R
LANCASTER      FAIR      65  60  84 N5        30.05R
ZANESVILLE     FAIR      67  59  75 N8        30.04R
NEW PHILLY     FAIR      65  59  81 CALM      30.05R
$$




USA.gov is the U.S. government's official web portal to all federal, state and local government web resources and services.